Home   Weather   Bologna   Past weeks

Flag for Italy Past Weather in Bologna, Italy — Yesterday and Last 2 Weeks

Now
64 °F

Broken clouds.


Feels Like: 64 °F
Forecast: 48 / 70 °F
Wind: 6 mph from Northeast

Location: Bologna / Borgo Panigale

Current Time: Apr 24, 2017 at 7:47:01 pm

Latest Report: Apr 24, 2017 at 6:50 pm


Visibility: N/A

Pressure: 30.04 "Hg

Humidity: 64%

Dew Point: 52 °F

Location of BolognaLocation

Past Weather in Bologna — Graph

°F

Bologna Temperature Yesterday

Maximum temperature yesterday: 68 °F (at 3:20 pm)
Minimum temperature yesterday: 45 °F (at 4:50 am)
Average temperature yesterday: 57 °F

High & Low Weather Summary for the Past Weeks

 TemperatureHumidityPressure
High77 °F (Apr 10, 3:50 pm)100% (Apr 12, 3:50 am)30.42 "Hg (Apr 12, 3:50 am)
Low36 °F (Apr 19, 4:50 am)17% (Apr 20, 4:50 pm)29.80 "Hg (Apr 13, 4:20 pm)
Average57 °F64%30.04 "Hg
* Reported Apr 9 6:20 pm — Apr 24 6:20 pm, Bologna, Weather by CustomWeather, © 2017

Note: Actual official high and low records may vary slightly from our data, if they occured in-between our weather recording intervals... More about our weather records

Advertising

Bologna Weather History for the Previous 24 Hours

Scroll right to see more
 ConditionsComfort  
Time TempWeatherWind HumidityBarometerVisibility
6:20 pm
Mon, Apr 24
66 °FBroken clouds.5 mph56%30.04 "HgN/A
5:50 pm66 °FPartly sunny.6 mph60%30.04 "HgN/A
5:20 pm68 °FPartly sunny.6 mph53%30.04 "HgN/A
4:50 pm66 °FScattered clouds.5 mph56%30.04 "HgN/A
4:20 pm66 °FScattered clouds.5 mph56%30.07 "HgN/A
3:20 pm68 °FScattered clouds.6 mph56%30.07 "HgN/A
2:50 pm66 °FScattered clouds.5 mph56%30.07 "HgN/A
2:20 pm66 °FScattered clouds.6 mph60%30.09 "HgN/A
1:50 pm66 °FScattered clouds.5 mph56%30.09 "HgN/A
1:20 pm66 °FPassing clouds.5 mph64%30.09 "HgN/A
12:50 pm64 °FScattered clouds.5 mph60%30.12 "HgN/A
12:20 pm63 °FScattered clouds.5 mph64%30.12 "Hg6 mi
11:50 am63 °FScattered clouds.5 mph68%30.12 "Hg6 mi
11:20 am63 °FScattered clouds.3 mph64%30.12 "Hg5 mi
10:50 am61 °FScattered clouds.3 mph68%30.12 "Hg5 mi
10:20 am59 °FScattered clouds.5 mph77%30.12 "Hg5 mi
9:50 am59 °FScattered clouds.6 mph72%30.12 "Hg5 mi
9:20 am59 °FPassing clouds.2 mph72%30.12 "Hg5 mi
8:50 am57 °FScattered clouds.3 mph77%30.12 "Hg5 mi
8:20 am55 °FScattered clouds.3 mph82%30.12 "Hg4 mi
7:50 am54 °FScattered clouds.6 mph82%30.12 "Hg4 mi
7:20 am54 °FPartly sunny.6 mph82%30.12 "Hg4 mi
6:50 am54 °FScattered clouds.5 mph88%30.12 "Hg4 mi
6:20 am54 °FFog.3 mph88%30.09 "Hg2 mi
5:50 am54 °FPassing clouds.2 mph88%30.09 "Hg4 mi
5:20 am54 °FPassing clouds.2 mph88%30.09 "Hg5 mi
3:20 am52 °FPassing clouds.1 mph94%30.09 "HgN/A
2:50 am54 °FPassing clouds.2 mph88%30.09 "HgN/A
2:20 am54 °FPassing clouds.6 mph88%30.09 "HgN/A
1:50 am54 °FPassing clouds.3 mph88%30.09 "HgN/A
1:20 am54 °FPassing clouds.6 mph88%30.09 "HgN/A
12:50 am54 °FPassing clouds.6 mph88%30.09 "HgN/A
12:20 am54 °FPassing clouds.7 mph88%30.09 "HgN/A
11:50 pm
Sun, Apr 23
54 °FPassing clouds.5 mph88%30.09 "HgN/A
11:20 pm55 °FPassing clouds.7 mph82%30.09 "HgN/A
10:50 pm55 °FPassing clouds.8 mph82%30.09 "HgN/A
10:20 pm55 °FClear.9 mph82%30.09 "Hg10 mi
9:50 pm55 °FClear.10 mph82%30.09 "Hg10 mi
9:20 pm57 °FClear.9 mph77%30.07 "Hg10 mi
8:50 pm59 °FClear.10 mph72%30.07 "Hg10 mi
8:20 pm59 °FClear.10 mph72%30.04 "Hg10 mi
7:50 pm61 °FSunny.10 mph68%30.04 "Hg10 mi
7:20 pm63 °FPassing clouds.12 mph68%30.04 "HgN/A
Weather by CustomWeather, © 2017

See weather overviewHow to use our weather pages